Wind_Speed
6 7 8 9 10 10 9 10 11 11 10 9 9 9 10 10 11 11 10 9 8 6 6 5 4 4 4 5 5 3 1 2 5 7 9 11 11 12 12 12 11 12 12 11 11 12 12 12 12
4 5 6 8 9 8 10 11 11 10 10 9 9 9 9 9 9 9 9 9 9 8 7 6 5 5 4 3 2 2 1 1 3 5 7 8 10 11 11 12 12 12 13 13 13 13 12 12 12
3 4 6 8 9 10 11 11 11 10 10 10 10 10 9 10 9 9 9 9 9 9 8 8 7 6 5 5 4 4 4 4 4 5 6 7 8 10 11 11 12 13 14 14 15 15 14 14 13
5 7 8 9 10 11 12 12 10 11 11 12 12 12 12 11 11 11 10 9 9 8 8 8 7 7 6 6 6 7 7 7 7 7 7 7 8 9 10 11 11 13 14 15 15 15 15 15 15
9 10 11 11 11 12 12 12 11 11 12 13 13 13 13 13 12 12 12 11 10 9 8 8 7 7 7 6 7 8 9 10 10 11 10 10 10 10 10 11 11 12 13 14 15 16 16 16 16
12 14 15 14 13 13 13 13 12 12 12 13 13 13 14 14 13 13 13 12 12 12 11 10 9 9 8 8 8 8 9 10 12 13 14 14 14 13 14 13 13 13 14 15 15 16 17 17 17
14 16 17 18 17 14 14 14 14 14 14 14 13 13 13 13 13 13 13 13 13 13 13 13 12 12 11 11 10 10 10 10 12 13 15 16 17 17 17 17 17 16 17 17 17 17 17 18 18
17 18 20 20 19 17 16 15 15 15 16 17 16 15 14 13 14 14 14 14 14 14 15 15 15 15 15 14 14 13 13 13 13 14 15 16 17 19 20 20 20 20 20 20 20 20 20 20 20
19 20 21 21 20 20 18 17 16 16 18 20 20 19 18 17 16 16 16 15 14 15 16 17 18 18 18 18 18 17 17 17 17 16 16 17 17 18 20 21 23 23 24 23 23 23 23 23 23
22 22 22 21 21 21 21 20 19 18 19 21 22 23 22 22 21 20 19 18 16 16 16 17 18 19 19 20 20 20 20 20 21 21 20 20 20 20 20 22 23 24 25 25 26 26 26 26 27
23 23 23 23 22 23 23 23 23 22 21 23 23 25 26 25 24 23 23 22 20 18 18 18 18 18 19 20 21 22 22 23 23 24 24 24 24 24 24 24 24 25 25 26 26 27 27 28 28
23 22 23 24 25 25 25 25 25 25 24 25 25 26 28 28 26 24 23 23 23 22 21 20 20 19 20 20 21 22 23 24 24 26 27 27 28 28 29 29 28 28 28 28 28 28 28 29 29
23 22 24 25 27 27 27 27 26 27 27 28 29 30 29 29 27 26 25 24 24 24 24 23 23 23 22 22 23 24 25 26 26 26 27 29 30 30 31 32 32 32 32 33 33 32 31 31 31
25 25 25 27 29 29 29 29 28 29 28 29 31 33 32 31 29 27 26 26 25 25 26 26 26 26 26 26 26 27 28 29 30 30 31 31 31 32 32 34 34 35 35 36 36 36 35 35 34
29 29 28 30 31 31 30 30 30 30 30 30 33 34 34 32 31 30 28 28 27 27 27 28 28 28 29 29 30 30 31 32 33 34 34 35 35 35 35 35 36 37 37 38 39 39 39 38 38
33 33 31 32 33 34 34 31 31 31 31 31 34 34 34 33 32 32 31 30 30 29 29 29 30 30 30 31 32 33 33 34 35 36 37 37 38 38 39 39 39 40 40 40 41 42 41 41 41
35 36 34 33 33 36 36 35 32 32 32 32 33 33 33 33 33 33 33 33 33 32 32 31 31 32 32 33 33 34 35 36 37 38 39 40 40 41 41 41 42 43 44 43 44 44 45 44 43
37 37 37 35 35 37 38 38 36 34 33 33 33 32 32 32 33 33 33 34 34 34 34 34 34 34 34 35 35 36 37 37 38 39 41 42 42 43 43 43 44 45 46 46 47 48 49 48 47
39 39 38 37 38 40 39 39 37 35 35 35 33 32 32 32 32 33 34 34 35 36 36 37 37 37 37 38 38 39 39 40 40 41 42 43 44 45 45 45 46 46 47 47 48 50 51 51 51
40 40 40 39 40 41 40 39 37 36 37 36 34 34 34 35 35 36 36 37 37 38 38 39 39 40 40 41 42 42 42 43 43 44 45 45 46 47 47 48 48 48 48 48 49 50 51 52 53
39 39 39 40 40 41 43 42 37 37 38 38 38 39 39 39 39 38 38 39 39 39 40 41 42 43 43 44 45 46 46 47 47 48 48 49 50 50 51 51 51 51 51 51 51 52 53 53 54
37 38 39 39 41 42 43 46 42 42 42 42 42 43 43 43 43 42 41 40 40 40 41 41 43 44 45 46 47 48 49 50 51 52 53 53 54 54 55 55 56 56 56 56 55 55 56 56 56
36 37 39 41 43 46 45 48 48 48 47 46 46 46 46 46 45 45 45 44 43 42 41 42 43 45 46 48 49 51 52 53 54 55 56 57 58 59 60 60 61 61 61 61 61 60 60 60 60
39 40 42 44 46 49 47 49 51 51 50 49 49 48 47 47 46 47 47 47 47 46 44 44 44 46 48 50 53 55 56 57 58 59 60 61 62 63 64 65 65 66 66 67 66 66 65 65 65
41 42 45 48 49 50 50 52 52 51 50 50 49 49 49 48 49 49 50 50 50 50 49 48 48 49 51 53 56 59 61 63 64 65 65 66 66 67 68 68 69 70 70 71 72 72 71 71 70
43 44 45 49 51 52 52 54 53 51 50 49 49 50 50 51 52 53 54 54 54 54 54 53 53 54 55 57 60 63 66 68 70 71 72 73 73 72 73 73 74 74 74 75 75 76 76 76 76
45 46 47 50 52 53 54 54 52 50 49 49 50 52 53 54 55 56 57 57 58 58 58 58 58 59 60 61 64 66 69 72 74 76 77 78 79 79 79 79 79 79 78 78 79 79 79 79 79
46 47 49 50 53 54 54 53 52 50 50 51 52 54 55 56 58 59 60 61 61 62 62 63 63 64 65 67 68 70 73 75 77 79 81 81 82 83 84 84 83 83 83 83 82 82 82 82 82
48 48 50 52 54 56 55 54 54 53 53 54 55 56 57 59 61 62 63 65 66 67 67 69 69 70 71 71 73 74 76 78 80 81 83 83 83 84 85 86 86 85 85 85 85 85 84 84 83
49 49 50 53 55 57 59 57 55 54 55 56 57 59 61 63 64 65 66 68 69 70 71 73 73 74 75 76 77 77 79 80 82 83 85 85 86 86 87 87 87 87 87 88 88 89 89 88 87
Wind_Direction
81 61 46 40 35 28 12 13 23 29 31 29 28 26 24 28 30 27 23 20 20 9 357 353 359 12 27 38 44 45 23 257 251 248 246 246 247 248 249 251 252 251 250 250 249 248 250 251 253
68 43 25 21 20 7 351 358 8 12 11 9 9 11 11 10 15 18 15 14 17 13 4 355 346 339 338 343 354 3 353 291 262 256 255 254 252 251 251 251 251 251 251 250 250 251 253 254 255
33 7 357 356 355 346 342 349 353 353 352 351 351 351 352 349 351 357 360 0 4 8 6 2 354 341 324 308 297 288 281 276 270 262 258 258 257 255 254 253 252 251 251 251 251 252 254 256 257
339 334 333 336 335 331 331 336 340 340 338 337 337 336 335 333 333 335 338 341 343 348 353 354 352 346 332 310 293 282 275 270 268 266 263 260 258 256 255 254 253 252 250 250 250 250 251 253 254
322 320 320 322 320 319 321 325 328 329 328 327 329 329 327 326 324 322 321 322 322 323 327 330 331 330 326 318 302 286 278 273 269 266 264 262 260 258 257 255 253 252 251 250 249 249 249 251 252
313 314 312 311 311 312 314 317 318 318 319 320 322 325 324 324 323 318 313 309 308 307 306 306 307 306 306 305 302 295 285 276 272 269 266 264 262 261 260 259 257 255 254 253 252 250 249 250 251
305 305 304 304 307 309 309 309 309 310 312 313 315 317 319 322 321 317 312 306 300 296 293 292 290 289 289 289 289 288 285 281 274 270 267 264 263 262 261 260 260 259 258 256 256 255 254 253 253
298 297 297 300 303 305 303 302 303 307 308 307 306 308 310 313 312 311 308 304 299 294 289 286 284 281 279 278 277 277 277 276 275 272 268 265 262 261 260 260 259 259 258 258 257 258 257 257 256
295 293 293 296 297 299 299 299 300 303 302 300 301 302 302 301 300 300 300 301 300 296 292 288 284 280 278 275 272 271 270 270 270 269 268 266 264 261 260 258 258 258 258 258 258 258 258 258 258
293 291 291 293 293 295 296 298 300 301 299 298 302 300 299 297 295 295 295 296 296 295 293 290 287 284 280 276 272 269 268 267 266 265 265 265 263 262 260 258 257 257 257 258 258 258 258 259 259
290 289 290 290 291 292 294 298 302 302 300 302 301 298 297 295 293 294 295 296 296 294 290 288 286 285 282 278 274 270 268 266 264 262 262 262 261 261 260 259 257 257 257 257 257 257 258 258 259
283 283 284 286 289 290 293 295 298 299 300 300 298 294 293 295 296 297 296 295 294 293 289 284 280 277 276 276 274 271 269 267 265 263 262 261 261 260 259 258 257 256 256 256 255 255 256 256 257
278 277 279 280 282 285 289 291 293 293 297 297 295 293 292 295 298 301 301 297 294 290 285 281 276 271 267 266 268 269 268 266 265 265 264 263 262 261 260 260 259 258 257 256 256 255 255 256 255
280 276 275 276 278 282 284 287 288 289 292 293 292 291 292 294 296 298 298 296 292 288 284 280 275 271 267 263 261 262 264 266 265 264 263 263 263 262 262 261 260 259 258 258 257 256 256 255 255
280 279 277 277 280 283 285 284 286 289 290 289 288 288 290 291 292 292 292 290 288 286 283 280 276 272 268 266 263 261 261 263 264 265 264 263 263 262 262 262 261 260 259 259 259 259 257 256 256
281 281 280 281 284 285 285 285 288 289 288 284 283 285 287 289 289 288 287 286 284 283 281 279 277 274 270 267 265 262 261 261 262 263 264 264 263 262 262 261 260 260 260 259 260 260 260 259 258
283 284 284 285 286 286 287 290 289 288 286 283 282 284 286 286 286 286 285 284 283 282 280 278 276 274 272 269 267 265 263 262 261 262 263 263 263 262 262 261 261 260 260 260 260 261 262 261 261
283 283 285 285 285 285 288 290 290 290 288 286 286 286 286 285 285 284 284 284 283 282 281 279 276 274 272 270 268 267 265 263 262 261 262 263 263 262 261 261 260 261 261 261 261 261 262 263 263
281 282 284 285 284 285 287 288 289 291 290 289 290 290 288 287 286 286 285 285 284 283 281 280 278 275 272 270 269 267 266 265 263 262 262 262 262 263 262 262 261 261 262 262 261 262 262 263 264
279 281 283 284 284 285 286 286 289 290 290 292 293 292 290 289 288 287 286 285 284 283 282 280 279 277 274 271 269 267 266 265 264 263 262 261 261 262 262 262 262 262 262 262 262 262 262 262 263
278 280 281 282 284 285 287 288 289 289 290 292 292 292 291 290 289 288 286 285 284 283 281 280 279 277 275 273 270 268 267 265 264 264 262 261 261 261 261 262 262 261 261 261 261 261 262 261 261
278 280 281 283 284 285 287 289 291 290 291 292 293 293 293 293 292 291 289 288 286 285 283 281 279 277 275 272 270 268 267 266 265 264 263 262 261 261 260 261 261 261 261 261 260 261 261 261 261
279 280 281 283 284 285 288 290 291 293 294 295 295 295 294 294 294 293 293 292 290 288 284 281 278 275 272 270 269 268 266 266 265 264 263 262 262 262 261 261 261 261 261 261 261 260 260 261 261
281 281 282 282 283 284 288 288 289 291 294 295 295 294 294 293 293 292 292 291 290 288 285 280 276 272 269 267 266 265 265 265 265 264 264 263 262 262 263 263 262 261 261 261 261 260 260 260 260
280 281 282 282 283 285 286 286 288 290 292 292 291 291 291 291 290 290 290 289 288 287 284 280 277 273 269 266 264 263 263 263 264 264 264 264 263 263 264 263 263 262 261 261 261 261 260 260 259
279 280 281 282 283 284 285 286 288 290 289 288 288 288 288 288 288 288 288 288 287 286 284 281 278 274 271 267 264 262 262 262 262 264 265 265 265 265 265 265 265 264 263 262 261 261 260 260 260
280 280 280 278 280 281 282 285 286 287 285 283 283 284 284 285 285 285 285 285 285 284 283 281 278 275 272 269 266 264 263 263 263 264 264 265 266 266 267 267 267 266 265 264 263 262 261 260 260
279 279 278 278 279 280 282 284 286 284 282 281 281 282 282 282 283 284 284 284 283 282 281 279 277 275 273 271 269 268 267 266 266 266 266 267 267 267 267 268 268 268 267 266 265 264 263 262 261
279 279 279 278 278 279 281 284 285 283 282 281 280 280 280 280 281 281 282 281 281 281 280 279 278 277 276 275 273 272 271 270 269 269 269 269 269 269 269 268 268 268 268 267 266 265 264 263 263
280 281 279 277 278 277 278 282 284 281 279 278 278 277 278 278 279 280 280 280 280 280 280 280 280 280 279 278 277 276 275 274 273 273 273 272 272 271 271 270 269 268 267 267 266 266 266 265 264
Height
5886 5886 5886 5887 5887 5885 5884 5883 5881 5880 5879 5878 5877 5876 5875 5874 5874 5874 5871 5868 5868 5867 5867 5866 5866 5866 5866 5865 5865 5866 5866 5866 5867 5867 5868 5869 5869 5870 5871 5871 5872 5872 5873 5874 5874 5875 5876 5876 5877
5887 5887 5888 5887 5886 5886 5885 5883 5881 5880 5879 5878 5877 5876 5875 5874 5874 5873 5871 5870 5869 5868 5867 5866 5866 5866 5866 5866 5866 5866 5866 5867 5867 5867 5868 5868 5869 5869 5870 5870 5870 5871 5871 5872 5873 5873 5874 5875 5876
5887 5887 5888 5887 5886 5886 5885 5883 5881 5880 5879 5878 5877 5876 5876 5875 5874 5873 5872 5870 5869 5868 5867 5866 5866 5865 5865 5866 5866 5866 5866 5866 5867 5867 5867 5867 5868 5868 5869 5869 5869 5870 5870 5870 5871 5872 5872 5873 5873
5887 5887 5887 5887 5885 5885 5883 5882 5881 5879 5878 5877 5876 5876 5875 5874 5873 5872 5871 5870 5869 5868 5867 5866 5866 5865 5865 5865 5865 5865 5865 5865 5866 5866 5866 5867 5867 5867 5867 5868 5868 5868 5868 5869 5869 5869 5870 5870 5871
5887 5886 5886 5885 5884 5883 5882 5881 5880 5879 5877 5876 5875 5874 5873 5872 5871 5870 5870 5869 5868 5867 5866 5865 5865 5864 5864 5864 5863 5863 5864 5864 5864 5864 5865 5865 5865 5866 5866 5866 5866 5866 5866 5867 5867 5867 5867 5868 5868
5885 5884 5884 5883 5883 5882 5880 5879 5878 5877 5876 5875 5874 5873 5871 5870 5869 5869 5868 5867 5866 5865 5865 5864 5864 5863 5863 5863 5862 5862 5862 5862 5862 5862 5862 5863 5863 5863 5864 5864 5864 5864 5864 5864 5864 5865 5865 5865 5866
5884 5882 5880 5880 5880 5880 5879 5877 5876 5875 5874 5873 5872 5871 5870 5868 5867 5866 5865 5865 5864 5863 5862 5862 5862 5861 5861 5861 5861 5860 5860 5860 5860 5860 5859 5859 5860 5860 5861 5861 5861 5861 5862 5862 5862 5862 5862 5862 5863
5880 5880 5878 5877 5877 5877 5876 5875 5874 5873 5871 5870 5869 5868 5867 5867 5865 5864 5863 5862 5862 5861 5860 5860 5859 5859 5858 5858 5858 5858 5858 5858 5857 5857 5857 5856 5856 5857 5857 5857 5857 5857 5858 5858 5858 5858 5858 5859 5859
5877 5877 5875 5874 5874 5873 5873 5872 5872 5871 5869 5866 5865 5865 5864 5863 5862 5861 5861 5860 5860 5859 5858 5857 5856 5856 5855 5855 5855 5855 5854 5854 5854 5854 5854 5853 5853 5853 5853 5853 5853 5853 5853 5853 5853 5853 5854 5854 5855
5873 5872 5871 5871 5870 5869 5868 5868 5868 5868 5865 5863 5862 5860 5859 5858 5857 5857 5857 5857 5857 5856 5855 5854 5853 5852 5852 5851 5851 5850 5850 5850 5850 5850 5849 5849 5849 5849 5849 5848 5848 5848 5848 5848 5848 5848 5849 5849 5849
5869 5868 5866 5865 5865 5864 5864 5863 5862 5862 5862 5860 5858 5856 5853 5853 5853 5853 5853 5853 5852 5852 5851 5850 5849 5848 5847 5847 5846 5846 5845 5845 5845 5844 5844 5844 5844 5844 5844 5843 5843 5843 5843 5843 5843 5843 5843 5843 5844
5865 5863 5862 5861 5859 5859 5859 5859 5858 5857 5857 5856 5853 5851 5848 5847 5848 5849 5849 5848 5847 5847 5846 5845 5844 5844 5843 5842 5841 5841 5840 5840 5839 5839 5839 5838 5838 5838 5838 5837 5838 5838 5837 5837 5837 5837 5837 5837 5837
5860 5859 5858 5857 5855 5854 5854 5853 5853 5852 5852 5850 5847 5844 5843 5843 5843 5843 5843 5842 5842 5841 5840 5839 5838 5837 5837 5837 5836 5835 5834 5834 5833 5833 5833 5832 5832 5832 5831 5831 5831 5831 5831 5830 5830 5830 5831 5831 5831
5854 5853 5853 5851 5849 5849 5849 5849 5848 5847 5847 5844 5840 5838 5837 5837 5837 5837 5836 5836 5835 5834 5833 5832 5831 5831 5830 5830 5830 5829 5828 5827 5827 5827 5826 5826 5825 5825 5825 5824 5824 5823 5823 5823 5822 5823 5823 5823 5823
5846 5846 5847 5845 5843 5843 5843 5843 5842 5841 5840 5838 5834 5832 5831 5831 5831 5831 5830 5828 5827 5826 5825 5825 5824 5823 5823 5822 5822 5822 5821 5820 5820 5819 5818 5818 5818 5817 5817 5817 5816 5816 5815 5815 5814 5814 5815 5815 5815
5839 5839 5839 5839 5838 5836 5836 5837 5837 5835 5834 5831 5828 5826 5825 5825 5824 5823 5822 5821 5820 5819 5818 5817 5816 5815 5815 5814 5814 5813 5813 5813 5812 5811 5810 5810 5809 5809 5808 5808 5808 5807 5807 5806 5806 5805 5806 5806 5806
5830 5830 5830 5832 5830 5828 5827 5828 5830 5828 5826 5823 5821 5820 5819 5818 5816 5815 5813 5812 5811 5810 5809 5808 5808 5807 5806 5805 5805 5804 5804 5803 5803 5802 5801 5801 5800 5799 5799 5799 5798 5798 5797 5797 5797 5796 5796 5796 5796
5822 5821 5821 5822 5822 5819 5818 5818 5818 5818 5816 5814 5813 5813 5812 5810 5808 5807 5805 5804 5802 5801 5800 5799 5799 5798 5797 5796 5795 5794 5794 5793 5793 5792 5791 5791 5790 5789 5789 5788 5788 5787 5787 5787 5787 5786 5786 5786 5786
5813 5812 5812 5813 5812 5810 5809 5808 5808 5807 5805 5805 5805 5804 5803 5801 5800 5798 5797 5795 5794 5793 5791 5790 5789 5788 5787 5786 5785 5784 5783 5783 5782 5781 5780 5780 5779 5778 5778 5778 5777 5777 5776 5776 5776 5775 5775 5775 5775
5804 5803 5803 5803 5802 5800 5799 5799 5799 5798 5796 5795 5795 5794 5793 5791 5790 5789 5788 5786 5785 5784 5782 5781 5779 5778 5776 5775 5774 5773 5772 5771 5771 5770 5769 5768 5767 5767 5766 5766 5765 5765 5765 5765 5764 5763 5763 5763 5763
5795 5794 5794 5793 5792 5790 5789 5789 5791 5788 5786 5785 5784 5782 5781 5780 5779 5778 5777 5776 5775 5773 5772 5770 5769 5767 5765 5764 5763 5762 5761 5759 5759 5757 5756 5756 5755 5754 5754 5753 5753 5752 5752 5751 5751 5751 5750 5750 5751
5786 5785 5784 5783 5781 5781 5780 5777 5780 5778 5777 5775 5773 5771 5769 5767 5766 5765 5764 5763 5762 5761 5760 5759 5757 5755 5753 5751 5750 5749 5747 5746 5745 5743 5742 5741 5741 5740 5740 5739 5739 5738 5738 5737 5737 5737 5736 5736 5737
5776 5775 5775 5773 5771 5770 5770 5768 5768 5765 5764 5762 5760 5757 5755 5753 5752 5750 5749 5748 5747 5746 5746 5745 5743 5742 5740 5738 5736 5734 5733 5731 5730 5728 5727 5726 5725 5724 5723 5723 5723 5723 5722 5722 5722 5722 5721 5721 5722
5766 5765 5763 5762 5761 5760 5761 5758 5757 5754 5752 5750 5746 5744 5741 5739 5738 5736 5734 5733 5732 5731 5730 5729 5728 5726 5725 5723 5721 5719 5717 5715 5713 5712 5710 5709 5708 5707 5706 5705 5705 5705 5705 5705 5705 5705 5705 5705 5705
5756 5755 5752 5750 5749 5750 5749 5746 5747 5745 5742 5738 5734 5731 5728 5726 5724 5722 5720 5718 5717 5715 5714 5712 5711 5709 5708 5706 5704 5702 5700 5698 5696 5694 5692 5690 5689 5688 5687 5686 5686 5685 5686 5686 5686 5686 5686 5687 5687
5744 5743 5742 5739 5737 5736 5735 5733 5735 5733 5729 5726 5722 5719 5716 5714 5711 5708 5705 5703 5701 5699 5697 5695 5693 5691 5690 5688 5686 5684 5681 5679 5677 5675 5673 5671 5669 5668 5667 5666 5665 5665 5665 5665 5665 5666 5666 5667 5667
5732 5731 5729 5725 5723 5722 5723 5722 5722 5720 5717 5714 5710 5707 5704 5701 5698 5694 5691 5688 5685 5682 5680 5677 5675 5673 5671 5669 5667 5664 5662 5659 5657 5655 5653 5650 5648 5647 5645 5645 5644 5643 5643 5643 5643 5643 5644 5645 5645
5720 5718 5714 5710 5707 5706 5708 5709 5708 5707 5704 5701 5697 5694 5690 5687 5683 5679 5676 5672 5669 5665 5662 5659 5656 5654 5651 5648 5646 5644 5641 5638 5636 5633 5631 5628 5626 5625 5623 5622 5621 5620 5620 5620 5620 5620 5621 5622 5622
5705 5704 5700 5696 5691 5690 5690 5696 5694 5691 5688 5685 5682 5678 5675 5671 5667 5664 5660 5656 5652 5648 5644 5640 5637 5634 5631 5628 5625 5622 5620 5617 5614 5611 5608 5606 5604 5602 5601 5599 5598 5597 5596 5596 5596 5596 5597 5598 5599
5691 5690 5686 5681 5678 5674 5672 5679 5679 5676 5672 5669 5665 5662 5658 5655 5652 5648 5644 5639 5634 5630 5625 5621 5617 5613 5610 5607 5604 5601 5598 5595 5591 5588 5585 5582 5580 5578 5576 5575 5575 5573 5572 5571 5571 5571 5571 5572 5574